Regional Weather Roundup
Issued by NWS Jackson, KY

Home | Current Version | Previous Version | Text Only | Print | Product List | Glossary Off
Versions: 1 2 3 4 5 6 7 8 9 10 11 12 13 14 15 16 17 18 19 20 21 22 23 24 25 26 27 28 29 30 31 32 33 34 35 36 37 38 39 40 41 42 43 44 45 46 47 48 49 50

000
ASUS43 KJKL 240710
RWRJKL

EAST KENTUCKY HOURLY WEATHER ROUNDUP
NATIONAL WEATHER SERVICE JACKSON KY
300 AM EDT WED MAY 24 2017

NOTE: "FAIR" INDICATES FEW OR NO CLOUDS BELOW 12,000 FEET WITH
NO SIGNIFICANT WEATHER AND/OR OBSTRUCTIONS TO VISIBILITY.

* THESE REPORTS ARE NOT UNDER NWS QUALITY CONTROL AND MAY NOT
  REPORT WEATHER SUCH AS PRECIPITATION AND FOG.

KYZ079-080-083-085-087-088-110-112-115-119-120-240800
...EASTERN KENTUCKY...

CITY           SKY/WX    TMP DP  RH WIND       PRES   REMARKS
JACKSON        CLOUDY    59  59 100 CALM      29.62F FOG
LONDON         FOG       56  55  97 CALM      29.62F VSB 1/2
SOMERSET*      CLEAR     55  55 100 CALM      29.62F
MONTICELLO*    PTCLDY    58  57  97 CALM      29.63F
WILLIAMSBURG*  CLOUDY    57  57 100 CALM      29.62F VSB<1/4
MIDDLESBORO*   CLOUDY    59  59 100 CALM      29.64F FOG
HARLAN APT*    CLOUDY    59  57  94 CALM      29.64F
PIKE CO APT*   CLOUDY    58  58 100 CALM      29.61F FOG
BIG SANDY APT* CLOUDY    60  60 100 CALM      29.61F
MOREHEAD APT*  FOG       59  57  94 CALM      29.62F VSB<1/4
ASHLAND*       CLOUDY    61  61 100 CALM      29.58F
$$

KYZ035-036-041-042-044-050-067-078-099-240800
...CENTRAL KENTUCKY...

CITY           SKY/WX    TMP DP  RH WIND       PRES   REMARKS
MT STERLING*   FOG       55  55 100 W3        29.62F VSB 1/4
FLEMING/MASON* FOG       58  58 100 CALM      29.62F VSB<1/4
DANVILLE*      CLOUDY    59  57  94 SW3       29.61F
LEXINGTON      CLOUDY    59  56  89 SE6       29.60F
FRANKFORT      MOCLDY    60  56  86 SE3       29.59F
LOUISVILLE     CLOUDY    66  55  67 SE5       29.56F
LEBANON*         N/A     61  59  94 SE6       29.60F
GLASGOW*       MOCLDY    60  60 100 CALM      29.60F
BOWLING GREEN  CLOUDY    66  56  70 CALM      29.59F
$$

KYZ091>093-OHZ055-061-077-WVZ005-015-034-035-042-240800
...SOUTHERN OHIO/WEST VIRGINIA...

CITY           SKY/WX    TMP DP  RH WIND       PRES   REMARKS
COVINGTON      CLOUDY    62  59  90 S5        29.59F
COLUMBUS       CLOUDY    63  59  87 SE6       29.63F
DAYTON         CLOUDY    61  56  83 SE8       29.61F
WILMINGTON     CLOUDY    59  59 100 E5        29.60F
HUNTINGTON     CLOUDY    61  59  93 E5        29.59F
CHARLESTON     CLOUDY    59  57  93 CALM      29.61F
PINEVILLE*     CLOUDY    58  56  93 MISG      29.69F
BECKLEY        CLOUDY    55  52  89 SE12      29.67F
BLUEFIELD      CLOUDY    53  52  96 SE7       29.69F
LOGAN CO APT*  CLOUDY    59  57  94 CALM      29.61F
$$

VAZ002-007-008-TNZ017-027-036-066-071-240800
...SOUTHWEST VIRGINIA/EAST TENNESSEE...

CITY           SKY/WX    TMP DP  RH WIND       PRES   REMARKS
WISE*          CLOUDY    59  59 100 SW5       29.67F
JONESVILLE*    FOG       61  61 100 CALM      29.65F VSB<1/4
ABINGDON*      CLOUDY    60  60  99 CALM      29.65F
BRISTOL        MOCLDY    63  62  97 S3        29.63F
MORRISTOWN*    CLOUDY    63  63 100 CALM      29.62F
SEVIERVILLE*   PTSUNNY   59  57  94 CALM      29.62F
KNOXVILLE      CLOUDY    62  59  90 W6        29.62F
LAFOLLETTE*    FOG       61  61 100 CALM      29.65F VSB 1
OAK RIDGE      CLOUDY    63  60  90 SW3       29.64F
CROSSVILLE     CLOUDY    60  59  96 CALM      29.66S
NASHVILLE      CLOUDY    66  60  81 CALM      29.60F
$$

...KEY TO REMARKS...
VSB - VISIBILITY IN MILES
WCI - WIND CHILL INDEX
HX  - HEAT INDEX

$$



USA.gov is the U.S. government's official web portal to all federal, state and local government web resources and services.